Weather History for KBLI - November, 2013

Change the Weather History Date:

Saturday, November 9, 2013

  Actual Average Record
Temperature  
Mean Temperature 44 °F 45 °F  
Max Temperature 49 °F 51 °F 64 °F (1976)
Min Temperature 38 °F 38 °F 26 °F (1979)
Degree Days  
Heating Degree Days 21 20  
Month to date heating degree days 173 175  
Cooling Degree Days 0 0  
Month to date cooling degree days 0 0  
Year to date cooling degree days 95 42  
Moisture  
Dew Point 40 °F    
Average Humidity 84    
Maximum Humidity 96    
Minimum Humidity 71    
Precipitation  
Precipitation 0.00 in 0.20 in 2.87 in (1990)
Month to date precipitation 1.79 1.73  
Year to date precipitation 24.46 27.54  
Sea Level Pressure  
Sea Level Pressure 30.14 in    
Wind  
Wind Speed 1 mph (North)    
Max Wind Speed 7 mph    
Max Gust Speed 8 mph    
Visibility 9 miles    
Events      
T = Trace of Precipitation, MM = Missing Value Source: NWS Daily Summary

Daily Weather History Graph

Daily Weather History Graph

Search for Another Location

Airport or City:

Trip Planner

Search our weather history database for the weather conditions in past years. The results will help you decide how hot, cold, wet, or windy it might be!

Date:

Astronomy

Nov. 09, 2013 Rise Set
Actual Time 7:10 AM PST 4:37 PM PST
Civil Twilight 6:36 AM PST 5:11 PM PST
Nautical Twilight 5:58 AM PST 5:48 PM PST
Astronomical Twilight 5:21 AM PST 6:25 PM PST
Moon 12:44 PM PST (11/9) 11:21 PM PST (11/9)
Length of Visible Light 10h 34m
Length of Day
9h 26m
Waxing Crescent, 45% of the Moon is Illuminated
Nov 9
Waxing Crescent
Nov 9
First Quarter
Nov 17
Full
Nov 25
Last Quarter
Dec 2
New

Hourly Weather History & Observations

Time (PST) Temp. Windchill Dew Point Humidity Pressure Visibility Wind Dir Wind Speed Gust Speed Precip Events Conditions
12:53 AM 45.0 °F - 43.0 °F 93% 30.17 in 10.0 mi Calm Calm - N/A   Overcast
1:53 AM 45.0 °F - 42.1 °F 90% 30.17 in 10.0 mi Calm Calm - N/A   Overcast
2:21 AM 44.6 °F - 42.8 °F 93% 30.15 in 10.0 mi Calm Calm - N/A   Overcast
2:53 AM 45.0 °F - 42.1 °F 90% 30.18 in 10.0 mi Calm Calm - N/A   Overcast
3:27 AM 44.6 °F - 42.8 °F 93% 30.14 in 10.0 mi Calm Calm - N/A   Overcast
3:46 AM 44.6 °F - 41.0 °F 87% 30.14 in 10.0 mi Calm Calm - N/A   Overcast
3:53 AM 44.1 °F 42.5 °F 41.0 °F 89% 30.17 in 10.0 mi WNW 3.5 mph - N/A   Overcast
4:53 AM 42.1 °F - 41.0 °F 96% 30.17 in 9.0 mi Calm Calm - N/A   Overcast
5:18 AM 39.2 °F 37.0 °F 39.2 °F 100% 30.13 in 2.0 mi NNE 3.5 mph - N/A   Scattered Clouds
5:39 AM 41.0 °F - 39.2 °F 93% 30.12 in 7.0 mi Calm Calm - N/A   Clear
5:53 AM 39.9 °F - 37.9 °F 93% 30.15 in 2.5 mi Calm Calm - N/A   Clear
6:01 AM 39.2 °F - 37.4 °F 93% 30.13 in 1.0 mi Calm Calm - N/A   Clear
6:07 AM 37.4 °F 34.9 °F 35.6 °F 93% 30.13 in 3.0 mi North 3.5 mph - N/A   Clear
6:53 AM 39.0 °F - 36.0 °F 89% 30.15 in 10.0 mi Calm Calm - N/A   Clear
7:53 AM 37.9 °F - 36.0 °F 93% 30.15 in 10.0 mi Calm Calm - N/A   Clear
8:53 AM 42.1 °F - 39.0 °F 89% 30.14 in 10.0 mi Calm Calm - N/A   Clear
9:53 AM 44.1 °F - 39.9 °F 85% 30.14 in 10.0 mi Calm Calm - N/A   Clear
10:53 AM 45.0 °F 42.6 °F 39.9 °F 82% 30.14 in 10.0 mi NNE 4.6 mph - N/A   Overcast
11:53 AM 46.9 °F - 39.9 °F 77% 30.14 in 10.0 mi Calm Calm - N/A   Overcast
12:53 PM 48.0 °F - 39.9 °F 74% 30.13 in 10.0 mi Calm Calm - N/A   Overcast
1:53 PM 48.0 °F - 39.9 °F 74% 30.12 in 10.0 mi NNE 5.8 mph - N/A   Overcast
2:53 PM 48.0 °F - 39.9 °F 74% 30.13 in 10.0 mi NNW 5.8 mph - N/A   Overcast
3:53 PM 48.0 °F - 39.9 °F 74% 30.12 in 10.0 mi North 4.6 mph - N/A   Overcast
4:53 PM 46.9 °F - 39.9 °F 77% 30.14 in 10.0 mi Calm Calm - N/A   Overcast
5:53 PM 46.0 °F 44.8 °F 41.0 °F 83% 30.14 in 10.0 mi North 3.5 mph - N/A   Overcast
6:53 PM 46.0 °F - 41.0 °F 83% 30.14 in 10.0 mi Calm Calm - N/A   Overcast
7:53 PM 45.0 °F - 41.0 °F 86% 30.15 in 10.0 mi Calm Calm - N/A   Overcast
8:53 PM 44.1 °F - 39.9 °F 85% 30.15 in 10.0 mi Calm Calm - N/A   Mostly Cloudy
9:53 PM 42.1 °F - 39.9 °F 92% 30.15 in 10.0 mi Calm Calm - N/A   Clear
10:53 PM 43.0 °F - 39.9 °F 89% 30.15 in 10.0 mi Calm Calm - N/A   Overcast
11:53 PM 43.0 °F - 39.9 °F 89% 30.16 in 10.0 mi Calm Calm - N/A   Overcast